www.pogodaiklimat.ru

Погода и климат >> Архив погоды >> Россия >> Якутия >> Мача


ПОГОДА в Маче

  • Прогноз погоды в Маче
  • Монитор погоды в Маче

АРХИВ ПОГОДЫ в Маче

Время (UTC), дата Ветер
(напр.,м/с)
 
Видим.   Явления Облачность Т
(С)
Тd
(С)
f
(%)
Тe
(С)
Тes
(С)
Комфортность P
(гПа)
Po
(гПа)
Тmin
(С)
Tmax
(С)
R
(мм)
R24
(мм)
S
(см)
06 16.04 З 3 50 км 6/6 1000 м
[Cu med, cong]
-1.3 -17.7 27 -5 -2 1009.0 988.4
09 16.04 С 3 н/о н/о -1.8 -18.9 26 -6 -6 1009.1 988.6
12 16.04 штиль 0 50 км 1/0
[Ac trans]
-5.1 -14.8 46 -5 -5 1010.1 989.3 -0.7
18 16.04 СВ 1 н/о н/о -15.7 -28.9 31 -18 -18 1013.3 991.5
21 16.04 штиль 0 н/о н/о -17.9 -20.5 80 -18 -18 1014.8 992.8
00 17.04 штиль 0 50 км ясно -15.3 -18.0 80 -15 -10 1015.5 993.7 -18.7 21
03 17.04 С 1 н/о н/о -5.1 -11.2 62 -7 -7 1014.8 993.9
06 17.04 С 2 50 км 10/3 1000 м
[Cu hum Ci]
+0.9 -15.6 28 -1 +3 1013.7 993.2
09 17.04 СЗ 2 н/о н/о -0.7 -8.0 58 -4 -4 1015.2 994.6
12 17.04 СЗ 1 50 км 3/0
[Ac cuf]
-2.4 -12.3 47 -4 -4 1016.5 995.8 +2.0
18 17.04 штиль 0 н/о н/о -12.4 -16.5 71 -12 -12 1020.7 999.0
21 17.04 штиль 0 н/о н/о -14.8 -18.2 75 -15 -15 1022.0 1000.1
00 18.04 штиль 0 50 км ясно -12.6 -14.6 85 -13 -8 1021.6 1000.0 -15.4 20
03 18.04 С 1 н/о н/о -1.6 -38.7 4 -2 -2 1019.2 998.5
06 18.04 Ю 4 50 км 4/4 1000 м
[Cu hum]
+2.7 -17.4 21 -1 +3 1016.1 995.7
09 18.04 ЮЗ 4
{11}
н/о н/о +3.3 -35.2 4 0 0 1013.5 993.2
12 18.04 Ю 2 50 км 10/0
[Ci]
-0.9 -16.7 29 -4 -4 1011.8 991.3 +3.5
18 18.04 ЮВ 4 н/о н/о -4.1 -0.5 100 -11 -11 1008.9 988.2
00 19.04 ЮВ 5 50 км 9/0
[Ac lent]
-3.8 -15.5 40 -10 -9 1003.4 982.7 -7.4 20
06 19.04 ЮВ 4
{11}
50 км 10/0
[Ac lent Ci]
+2.6 -12.5 32 -1 +2 1007.4 987.2
09 19.04 В 2
{10}
н/о н/о +0.5 -11.2 41 -2 -2 998.8 978.6
12 19.04 СЗ 2 4000 м слаб. ливневой снег 9/4 600 м
[Cb cap Ac cuf]
-0.4 -1.3 94 -4 -4 999.6 979.2 +3.7 0.0
18 19.04 штиль 0 н/о н/о -3.1 -39.8 4 -3 -3 1003.4 982.9
21 19.04 З 2 н/о н/о -3.6 -10.2 60 -7 -7 1004.4 983.8
00 20.04 СЗ 3 50 км 10/0
[Ac cuf Ci ing]
-2.3 -15.3 36 -6 -5 1005.5 985.0 -3.7 0.3 20
03 20.04 З 4 н/о н/о +0.5 -7.2 56 -4 -4 1005.4 985.1
06 20.04 З 6-10
{12}
50 км {ливн. осадки} 10/8 1000 м
[Cu med, cong Ci ing]
+2.1 -14.2 29 -3 -2 1005.6 985.4
09 20.04 З 6-10
{13}
н/о н/о +0.9 -6.9 56 -5 -5 1006.6 986.3
12 20.04 З 4
{13}
50 км 10/3 1000 м
[Sc Ac cuf Ci ing]
-1.0 -9.5 52 -6 -6 1008.5 988.0 +2.8 0.0
18 20.04 ЮВ 1 н/о н/о -6.3 -42.1 4 -7 -7 1009.7 988.8
21 20.04 Ю 2 н/о н/о -10.1 -14.8 68 -15 -15 1009.8 988.6
00 21.04 ЮВ 2 50 км 3/0
[Ac cast]
-7.8 -13.4 64 -12 -9 1008.6 987.5 -11.5 19
03 21.04 ЮЗ 4 н/о н/о +3.4 -5.1 54 -1 -1 1005.6 985.5
06 21.04 ЮЗ 7
{12}
50 км 10/3 1000 м
[Sc Ac cuf Ci ing]
+4.2 -10.9 32 -1 0 1004.4 984.4
09 21.04 СЗ 6
{12}
н/о н/о +2.8 -5.6 54 -2 -2 1005.1 904.9
12 21.04 СЗ 1 50 км 9/9 1000 м
[Sc]
+1.5 -3.3 70 0 0 1006.2 986.0 +5.9
18 21.04 Ю 1 н/о н/о -4.2 -40.5 4 -5 -5 1006.8 986.1
00 22.04 ЮВ 1 50 км 6/0
[Ci fib]
-4.4 -7.8 77 -7 -2 1006.4 985.7 -7.3 16
06 22.04 Ю 2 50 км 10/5 1000 м
[Cu med, cong Ci]
+8.8 -12.7 20 +8 +12 1003.5 983.8
12 22.04 СВ 1 50 км 10/3 1000 м
[Sc Ac lent Ci fib]
+4.3 -6.3 46 +4 +4 1005.8 985.8 +9.2
18 22.04 штиль 0 н/о н/о 0.0 0.0 100 -1 -1 988.6
00 23.04 СЗ 6 50 км {ливн. осадки} 8/8 1000 м
[Cu Sc]
+2.0 -3.0 69 -4 -3 1013.1 992.7 -3.6 0.3 13

 

Местоположение метеостанции Мача (Якутия, Россия): широта 59.93 долгота 117.60 высота над уровнем моря 164 м.

В архиве по умолчанию представлена погода в Маче за последнюю неделю. Архивные данные за месяц целиком и за предыдущие месяцы, начиная с января 2011 года, Вы можете получить, выбрав интересующий диапазон дат из раскрывающегося списка и нажав кнопку "Ввод!".


*Определитесь, кто Вы:
робот инопланетянин человек

Внимание! Время в таблицах - всемирное. Для получения местного времени необходимо прибавить поправку, которая равна 9 ч.

Смотрите также архив погоды в соседних городах и на ближайших метеорологических станциях:

Погода в Перевозе (Иркутская область, Россия) (111 км)
Погода в Килиере (Якутия, Россия) (147 км)
Погода в Тяне (Якутия, Россия) (162 км)
Погода в Олекминске (Якутия, Россия) (164 км)
Погода в Ленске (Якутия, Россия) (177 км)
Погода в Дорожном (Якутия, Россия) (249 км)
Погода в Сунтаре (Якутия, Россия) (249 км)
Погода в Джикимде (Якутия, Россия) (253 км)
Погода в Крестяхе (Якутия, Россия) (272 км)
Погода в Витиме (Якутия, Россия) (291 км)

Пояснения к столбцам:

Ветер - указаны скорость ветра в м/с - средняя за 10 мин, порывы в срок и между сроками (в фигурных скобках) и направление, откуда дует ветер: С - северный, СВ - северо-восточный, В - восточный, ЮВ - юго-восточный, Ю - южный, ЮЗ - юго-западный, З - западный, СЗ - северо-западный.
Видимость - горизонтальная дальность видимости в метрах или километрах. При видимости от 1 до 10 км при отсутствии осадков обычно наблюдается дымка, при ухудшении видимости до 1 км и менее - туман. В сухую погоду видимость может ухудшаться дымом, пылью или мглою.
Явления - указаны атмосферные явления, наблюдавшиеся в срок или в последний час перед сроком; фигурными скобками обозначены явления, наблюдавшиеся между сроками (за 1-3 часа до срока); квадратными скобками обозначены град или гололедные отложения с указанием их диаметра в мм.
Облачность - указаны через наклонную черту общая и нижняя облачность в баллах и высота нижней границы облаков в метрах; квадратными скобками обозначены формы облаков: Ci - перистые, Cs - перисто-слоистые, Cc - перисто-кучевые, Ac - высококучевые, As - высокослоистые, Sc - слоисто-кучевые, Ns - слоисто-дождевые, Cu - кучевые, Cb - кучево-дождевые. Подробнее классификацию облаков см. в Атласе облаков (PDF).
T - Температура воздуха - температура, измеренная на высоте 2 м над землей.
Td - Температура точки росы - температура, при понижении до которой содержащийся в воздухе водяной пар достигнет насыщения.
f - Относительная влажность воздуха - влажноcть воздуха, измеренная на высоте 2 м над землей.
Te - Эффективная температура - температура, которую ощущает одетый по сезону человек в тени. Характеристика душности погоды. При расчете учитывается влияние влажности воздуха и скорости ветра на теплоощущения человека.
Tes - Эффективная температура на солнце - температура, которую ощущает человек, с поправкой на солнечный нагрев. Характеристика знойности погоды. Зависит от высоты солнца над горизонтом, облачности и скорости ветра. Ночью, в пасмурную погоду, а также при ветре 12 м/с и более поправка равна нулю.
P - Атмосферное давление - приведенное к уровню моря атмосферное давление.
Po - Атмосферное давление - измеренное на уровне метеостанции атмосферное давление.
Tmin - Минимальная температура - минимум температуры воздуха на высоте 2 м над землей.
Tmax - Максимальная температура - максимум температуры воздуха на высоте 2 м над землей.
R - Количество осадков - Количество выпавших осадков за период времени, мм. При наведении курсора мыши на число - период времени, за который выпало указанное количество осадков.
R24 - Количество осадков - Количество выпавших осадков за 24 часа, мм.
S - Снежный покров - Высота снежного покрова, см. При наведении курсора мыши на число - состояние снежного покрова и степень покрытия местности в баллах.